Location: Maccacari
(45.1333°N, 11.1333°E)
Time: 01:51:08
(UTC+00:00)

Tiros 1 despin weight - Pass Details

Date: 30 January 2021
Orbit: 593 x 642 km, 48.2° (Epoch: 07 March)

Event Time Altitude Azimuth Distance (km) Brightness Sun altitude
Rises 11:47:35 0° 240° (WSW) 2,912 ? 27.2°
Reaches altitude 10° 11:49:55 10° 239° (WSW) 1,999 ? 27.2°
Maximum altitude 11:54:30 72° 156° (SSE) 654 ? 27.1°
Drops below altitude 10° 11:59:02 10° 71° (ENE) 1,975 ? 27.0°
Sets 12:01:20 0° 70° (ENE) 2,873 ? 26.9°
